Torna al catalogo

STARLINK-31205

AttivoComunicazioniVLEO
NORAD 59046·PAYLOAD·🇺🇸 United States

Lanciato Feb 25, 2024 da Cape Canaveral Space Force Station

Loading…

Prossimi Passaggi (prossime 24 ore)

TLE

AggiornatoSource: CelesTrak SupGP

Epoca: Sep 15, 2026, 02:16 UTC

1 59046C 24038Z   26258.09493056 -.00019195  00000+0 -69521-3 0  2580
2 59046  43.0041  34.0352 0001402 268.6062  96.3006 15.27588828    11

Traccia STARLINK-31205 in tempo reale con AllMySat

Download on the App Store